Creek Data

    Home     View Charts     View Raw Data     Messages

ID Distance Battery Voltage Battery Current Internal Temp Internal Humidity External Temp Solar Input rssi snr Time Stamp Record
64310 14.8 3.79 0 71 49 63 5.1 -73 7 01/24/2026 04:00 PM 47066
64309 14.9 3.75 0 73 47 64 5.1 -74 8 01/24/2026 03:45 PM 47065
64308 14.9 3.76 0 71 49 64 5.1 -74 8 01/24/2026 03:30 PM 47064
64307 15.0 3.76 0 69 51 64 5.1 -74 7 01/24/2026 03:15 PM 47063
64306 14.9 3.74 0 68 52 64 5.1 -75 7 01/24/2026 03:00 PM 47062
64305 15.0 3.98 0 73 48 64 5.1 -75 8 01/24/2026 02:45 PM 47061
64304 15.0 3.74 -5 75 46 65 5.1 -74 8 01/24/2026 02:30 PM 47060
64303 15.0 3.74 0 74 46 64 5.1 -74 8 01/24/2026 02:15 PM 47059
64302 15.0 3.74 -5 73 45 64 5.1 -72 7 01/24/2026 02:00 PM 47058
64301 14.9 3.74 -5 73 44 64 5.1 -72 7 01/24/2026 01:45 PM 47057
64300 14.9 3.90 0 71 45 63 5.1 -74 8 01/24/2026 01:30 PM 47056
64299 15.0 3.78 0 70 44 62 5.1 -73 8 01/24/2026 01:15 PM 47055
64298 14.9 3.78 0 69 44 62 5.1 -73 8 01/24/2026 01:00 PM 47054
64297 14.9 3.74 0 67 44 61 5.1 -72 8 01/24/2026 12:45 PM 47053
64296 14.9 3.74 0 66 44 60 5.1 -72 8 01/24/2026 12:30 PM 47052
64295 14.9 3.74 -5 65 44 59 5.1 -72 8 01/24/2026 12:15 PM 47051
64294 14.9 3.74 0 64 44 58 5.1 -73 8 01/24/2026 12:00 PM 47050
64293 15.0 3.74 -5 63 44 58 5.1 -74 8 01/24/2026 11:45 AM 47049
64292 15.0 3.74 0 61 44 57 5.1 -73 8 01/24/2026 11:30 AM 47048
64291 14.9 3.74 0 60 44 55 5.1 -72 8 01/24/2026 11:15 AM 47047
64290 15.0 3.74 0 58 44 55 5.1 -73 8 01/24/2026 11:00 AM 47046
64289 15.0 3.74 0 56 44 53 5.1 -72 9 01/24/2026 10:45 AM 47045
64288 15.0 3.74 0 54 45 52 5.1 -74 8 01/24/2026 10:30 AM 47044
64287 14.9 3.75 0 52 45 51 5.1 -73 8 01/24/2026 10:15 AM 47043
64286 15.0 3.75 0 50 45 49 5.1 -71 8 01/24/2026 10:00 AM 47042